Flight Track Log - Related Links

Times and Time Zones

All times are in EDT time to prevent confusion due to time zone crossing. See the N816BG flight status page for this flight to view local times or setup timezone preferences in your user account.

Time Position Orientation Groundspeed Altitude Reporting Facility
EDT Latitude Longitude Course Direction KTS MPH feet Rate Location/Type
Sun 07:20:02 AM 42.8375 -85.4986 97° East 192 221 2,700  Level Cleveland Center
Sun 07:20:54 AM 42.8342 -85.4067 93° East 255 293 5,500 3,000 Climbing Chicago Center
Sun 07:21:54 AM 42.8267 -85.3031 96° East 272 313 8,300 2,876 Climbing Chicago Center
Sun 07:22:55 AM 42.8178 -85.1925 96° East 288 331 11,300 2,557 Climbing Chicago Center
Sun 07:23:56 AM 42.8089 -85.0756 96° East 304 350 13,500 2,213 Climbing Chicago Center
Sun 07:24:57 AM 42.8003 -84.9519 95° East 322 371 15,800 2,164 Climbing Chicago Center
Sun 07:25:00 AM 42.7968 -84.6306 97° East  Level FlightAware Approximate
Sun 07:25:58 AM 42.7892 -84.8261 97° East 331 381 17,900  Level Chicago Center
Sun 07:27:09 AM 42.7767 -84.6703 96° East 342 394 20,300 1,864 Climbing Cleveland Center
Sun 07:28:10 AM 42.7653 -84.5381 97° East 352 405 22,000 1,475 Climbing Cleveland Center
Sun 07:29:11 AM 42.7539 -84.4031 97° East 357 411 23,300 1,279 Climbing Cleveland Center
Sun 07:30:12 AM 42.7428 -84.2606 96° East 369 425 24,600 1,180 Climbing Cleveland Center
Sun 07:31:13 AM 42.7253 -84.1183 99° East 379 436 25,700 1,033 Climbing Cleveland Center
Sun 07:32:14 AM 42.7100 -83.9717 98° East 386 444 26,700 836 Climbing Cleveland Center
Sun 07:33:15 AM 42.6925 -83.8217 99° East 398 458 27,400 885 Climbing Cleveland Center
Sun 07:34:16 AM 42.6758 -83.6678 98° East 406 467 28,500 1,131 Climbing Cleveland Center
Sun 07:35:17 AM 42.6556 -83.4844 98° East 407 468 29,700 744 Climbing Cleveland Center
Sun 07:36:17 AM 42.6372 -83.3275 99° East 416 479 30,000 149 Climbing Cleveland Center
Sun 07:37:18 AM 42.6181 -83.1619 99° East 436 502 30,000 492 Level Cleveland Center
Sun 07:38:19 AM 42.5981 -82.9928 99° East 448 516 31,000 1,082 Climbing Cleveland Center
Sun 07:39:20 AM 42.5781 -82.8331 100° East 434 499 32,200 1,131 Climbing Cleveland Center
Sun 07:40:21 AM 42.5589 -82.6769 99° East 424 488 33,300 1,082 Climbing Cleveland Center
Sun 07:41:22 AM 42.5417 -82.5267 99° East 408 470 34,400 885 Climbing Cleveland Center
Sun 07:42:23 AM 42.5222 -82.3806 100° East 400 460 35,100 639 Climbing Cleveland Center
Sun 07:43:24 AM 42.5056 -82.2328 99° East 398 458 35,700 541 Climbing Cleveland Center
Sun 07:44:25 AM 42.4850 -82.0842 101° East 398 458 36,200 443 Climbing Cleveland Center
Sun 07:45:26 AM 42.4667 -81.9361 99° East 398 458 36,600 393 Climbing Cleveland Center
Sun 07:46:27 AM 42.4458 -81.7742 100° East 402 463 37,000 197 Climbing Cleveland Center
Sun 07:47:28 AM 42.4256 -81.6189 100° East 413 475 37,000  Level Cleveland Center
Sun 07:48:28 AM 42.4042 -81.4597 100° East 423 487 37,000  Level Cleveland Center
Sun 07:49:29 AM 42.3825 -81.2961 100° East 434 499 37,000  Level Cleveland Center
Sun 07:50:30 AM 42.3608 -81.1286 100° East 444 511 37,000  Level Cleveland Center
Sun 07:51:31 AM 42.3367 -80.9572 101° East 455 524 37,000  Level Cleveland Center
Sun 07:52:32 AM 42.3139 -80.7864 100° East 456 525 37,000  Level Cleveland Center
Sun 07:53:33 AM 42.2889 -80.6131 101° East 463 533 37,000  Level Cleveland Center
Sun 07:54:34 AM 42.2650 -80.4392 100° East 464 534 37,000  Level Cleveland Center
Sun 07:55:35 AM 42.2400 -80.2636 101° East 472 543 37,000  Level Cleveland Center
Sun 07:56:36 AM 42.2142 -80.0883 101° East 472 543 37,000  Level Cleveland Center
Sun 07:57:37 AM 42.1856 -79.8956 101° East 473 544 37,000  Level Cleveland Center
Sun 07:58:38 AM 42.1594 -79.7214 101° East 475 547 37,000  Level Cleveland Center
Sun 07:59:39 AM 42.1333 -79.5475 101° East 475 547 37,000  Level Cleveland Center
Sun 08:00:40 AM 42.1069 -79.3719 101° East 477 549 37,000  Level Cleveland Center
Sun 08:01:41 AM 42.0800 -79.1967 102° East 478 550 37,000 -98 Level Cleveland Center
Sun 08:02:42 AM 42.0522 -79.0214 102° East 479 551 36,800 -590 Descending Cleveland Center
Sun 08:03:43 AM 42.0247 -78.8417 102° East 488 562 35,800 -984 Descending Cleveland Center
Sun 08:04:44 AM 41.9964 -78.6622 102° East 489 563 34,800 -1,033 Descending Cleveland Center
Sun 08:05:45 AM 41.9675 -78.4806 102° East 495 570 33,700 -1,033 Descending Cleveland Center
Sun 08:06:46 AM 41.9378 -78.2986 102° East 495 570 32,700 -1,131 Descending Cleveland Center
Sun 08:07:47 AM 41.9022 -78.0833 102° East 495 570 31,400 -1,180 Descending Cleveland Center
Sun 08:08:48 AM 41.8742 -77.9050 102° East 495 570 30,300 -1,024 Descending Cleveland Center
Sun 08:09:50 AM 41.8331 -77.7317 108° East 493 567 29,300 -634 Descending Cleveland Center
Sun 08:10:51 AM 41.7869 -77.5611 110° East 491 565 29,000 -148 Descending Cleveland Center
Sun 08:11:52 AM 41.7481 -77.4117 109° East 489 563 29,000  Level Cleveland Center
Sun 08:12:53 AM 41.6939 -77.2075 109° East 489 563 29,000 -492 Level Cleveland Center
Sun 08:13:54 AM 41.6481 -77.0397 110° East 486 559 28,000 -934 Descending Cleveland Center
Sun 08:14:55 AM 41.6022 -76.8711 110° East 485 558 27,100 -934 Descending Cleveland Center
Sun 08:15:56 AM 41.5606 -76.7186 110° East 484 557 26,100 -983 Descending Cleveland Center
Sun 08:16:51 AM 41.5175 -76.5642 110° East 472 543 25,200 -991 Descending New York Center
Sun 08:17:51 AM 41.4714 -76.3997 110° East 472 543 24,200 -1,200 Descending New York Center
Sun 08:18:51 AM 41.4236 -76.2186 109° East 472 543 22,800 -1,700 Descending New York Center
Sun 08:19:51 AM 41.3767 -76.0600 111° Southeast 472 543 20,800 -2,000 Descending New York Center
Sun 08:20:51 AM 41.3331 -75.9100 111° Southeast 449 517 18,800 -1,950 Descending New York Center
Sun 08:21:51 AM 41.2936 -75.7633 110° East 433 498 16,900 -1,950 Descending New York Center
Sun 08:22:51 AM 41.2514 -75.6250 112° Southeast 406 467 14,900 -1,900 Descending New York Center
Sun 08:23:51 AM 41.2069 -75.4894 114° Southeast 400 460 13,100 -1,650 Descending New York Center
Sun 08:24:51 AM 41.1619 -75.3597 115° Southeast 391 450 11,600 -1,250 Descending New York Center
Sun 08:25:51 AM 41.1247 -75.2469 114° Southeast 383 441 10,600 -1,500 Descending New York Center
Sun 08:26:51 AM 41.0853 -75.1289 114° Southeast 336 387 8,600 -1,950 Descending New York Center
Sun 08:27:51 AM 41.0472 -75.0328 118° Southeast 298 343 6,700 -1,300 Descending New York Center
Sun 08:28:51 AM 41.0083 -74.9561 124° Southeast 283 326 6,000 -900 Descending New York Center
Sun 08:29:51 AM 40.9700 -74.8603 118° Southeast 283 326 4,900 -1,000 Descending New York Center
Sun 08:30:51 AM 40.9314 -74.7700 119° Southeast 271 312 4,000 -450 Descending New York Center
Sun 08:31:51 AM 40.8986 -74.6939 120° Southeast 266 306 4,000 -500 Level New York Center
Sun 08:32:51 AM 40.8597 -74.6039 120° Southeast 255 293 3,000 -500 Descending New York Center
Sun 08:33:51 AM 40.8267 -74.5336 122° Southeast 255 293 3,000  Level New York Center
Sun 08:34:51 AM 40.7897 -74.4467 119° Southeast 255 293 3,000 -200 Level New York Center
Sun 08:35:51 AM 40.7506 -74.3650 122° Southeast 261 300 2,600 -540 Descending New York Center
Sun 08:36:31 AM 40.7333 -74.3167 115° Southeast 252 290 2,100 -600 Descending New York TRACON
Sun 08:37:31 AM 40.7500 -74.2333 75° East 220 253 1,600 -250 Descending New York TRACON
Sun 08:38:31 AM 40.7833 -74.1667 57° Northeast 185 213 1,600 -53 Level New York TRACON
Sun 08:39:25 AM 40.8000 -74.1333 57° Northeast 146 168 1,500 -444 Descending New York TRACON
Sun 08:40:19 AM 40.8167 -74.1000 57° Northeast 132 152 800 -778 Descending New York TRACON
Sun 08:42:00 AM 40.8500 -74.0500 69° East  Level FlightAware Approximate
Sun 08:49:00 AM 40.8501 -74.0608 271° West  Level Estimated
Sun 08:50:00 AM 40.8501 -74.0608 69° East  Level Estimated

Login

Don't have an account? Register now (free) for customized features, flight alerts, and more!